SKW4048 KSLC-KJAC

Flight info

Callsign SKW4048
Flight time 0h 39m
Altitude 29000
Route RUGGD3 HOLTR ELLKK MOSSS
Aircraft E75L/M-SDE3GILORVW/S

Departure

Time 2026-05-08 20:16
Airport Salt Lake City International Airport (KSLC)

Arrival

Time 2026-05-08 20:56
Airport Jackson Hole Airport (KJAC)
Time Latitude Longitude Altitude Speed Heading
2026-05-08 19:55 40.78854 -111.98373 4228 ft 0 kts 355°
2026-05-08 20:05 40.78855 -111.98373 4228 ft 0 kts 355°
2026-05-08 20:06 40.78852 -111.98373 4228 ft 2 kts 355°
2026-05-08 20:06 40.78838 -111.98372 4228 ft 2 kts 355°
2026-05-08 20:07 40.78823 -111.98370 4228 ft 2 kts 355°
2026-05-08 20:07 40.78807 -111.98369 4228 ft 2 kts 359°
2026-05-08 20:07 40.78793 -111.98373 4229 ft 2 kts 29°
2026-05-08 20:07 40.78783 -111.98386 4229 ft 2 kts 58°
2026-05-08 20:08 40.78778 -111.98402 4229 ft 1 kts 84°
2026-05-08 20:08 40.78778 -111.98406 4229 ft 0 kts 85°
2026-05-08 20:10 40.78778 -111.98405 4228 ft 1 kts 85°
2026-05-08 20:10 40.78780 -111.98370 4229 ft 6 kts 85°
2026-05-08 20:10 40.78786 -111.98276 4229 ft 12 kts 84°
2026-05-08 20:10 40.78796 -111.98156 4229 ft 14 kts 83°
2026-05-08 20:11 40.78807 -111.98006 4229 ft 18 kts 85°
2026-05-08 20:11 40.78823 -111.97810 4230 ft 24 kts 82°
2026-05-08 20:11 40.78729 -111.97677 4231 ft 27 kts 176°
2026-05-08 20:11 40.78523 -111.97659 4232 ft 30 kts 179°
2026-05-08 20:12 40.78319 -111.97631 4232 ft 29 kts 176°
2026-05-08 20:12 40.78115 -111.97615 4233 ft 29 kts 180°
2026-05-08 20:12 40.77912 -111.97562 4233 ft 29 kts 151°
2026-05-08 20:12 40.77725 -111.97504 4233 ft 28 kts 182°
2026-05-08 20:13 40.77535 -111.97491 4234 ft 25 kts 176°
2026-05-08 20:13 40.77460 -111.97385 4235 ft 19 kts 55°
2026-05-08 20:13 40.77534 -111.97321 4235 ft 0 kts 356°
2026-05-08 20:15 40.77541 -111.97322 4235 ft 4 kts 355°
2026-05-08 20:15 40.77781 -111.97353 4234 ft 64 kts 354°
2026-05-08 20:15 40.78401 -111.97424 4232 ft 114 kts 353°
2026-05-08 20:16 40.79339 -111.97530 4230 ft 154 kts 353°
2026-05-08 20:16 40.80468 -111.97657 4444 ft 169 kts 353°
2026-05-08 20:16 40.81675 -111.97794 4861 ft 177 kts 351°
2026-05-08 20:16 40.82891 -111.97958 5502 ft 174 kts 352°
2026-05-08 20:17 40.84133 -111.98121 5863 ft 191 kts 352°
2026-05-08 20:17 40.85525 -111.98347 6090 ft 215 kts 348°
2026-05-08 20:17 40.87093 -111.98671 6435 ft 235 kts 349°
2026-05-08 20:17 40.88709 -111.98972 7098 ft 239 kts 350°
2026-05-08 20:18 40.90358 -111.99261 7662 ft 247 kts 350°
2026-05-08 20:18 40.92144 -111.99564 7935 ft 268 kts 350°
2026-05-08 20:18 40.94054 -111.99882 8374 ft 281 kts 350°
2026-05-08 20:18 40.96007 -112.00203 9032 ft 284 kts 350°
2026-05-08 20:19 40.97936 -112.00519 9781 ft 283 kts 349°
2026-05-08 20:19 40.99897 -112.00841 10505 ft 282 kts 349°
2026-05-08 20:19 41.01842 -112.01160 11081 ft 287 kts 349°
2026-05-08 20:19 41.03868 -112.01003 11498 ft 305 kts 15°
2026-05-08 20:20 41.05693 -111.99437 11911 ft 326 kts 44°
2026-05-08 20:20 41.06817 -111.96779 12372 ft 342 kts 66°
2026-05-08 20:20 41.07679 -111.93865 12939 ft 344 kts 63°
2026-05-08 20:20 41.08638 -111.90949 13533 ft 346 kts 62°
2026-05-08 20:21 41.09627 -111.88058 14140 ft 348 kts 62°
2026-05-08 20:21 41.10640 -111.85139 14724 ft 350 kts 61°
2026-05-08 20:21 41.11668 -111.82195 15292 ft 353 kts 61°
2026-05-08 20:21 41.12743 -111.79312 15844 ft 351 kts 51°
2026-05-08 20:22 41.14477 -111.77133 16336 ft 341 kts 24°
2026-05-08 20:22 41.16692 -111.76129 16864 ft 335 kts
2026-05-08 20:22 41.18978 -111.75524 17410 ft 336 kts
2026-05-08 20:22 41.20506 -111.75143 17763 ft 337 kts
2026-05-08 20:23 41.23607 -111.74395 18452 ft 341 kts
2026-05-08 20:23 41.25934 -111.73840 18935 ft 344 kts
2026-05-08 20:23 41.28294 -111.73280 19422 ft 347 kts
2026-05-08 20:23 41.30680 -111.72714 19898 ft 350 kts
2026-05-08 20:24 41.33069 -111.72148 20385 ft 352 kts
2026-05-08 20:24 41.35506 -111.71570 20878 ft 354 kts
2026-05-08 20:24 41.37906 -111.71000 21345 ft 357 kts
2026-05-08 20:24 41.40349 -111.70209 21804 ft 362 kts 12°
2026-05-08 20:25 41.42752 -111.69267 22253 ft 364 kts 12°
2026-05-08 20:25 41.45182 -111.68316 22691 ft 367 kts 12°
2026-05-08 20:25 41.47643 -111.67352 23114 ft 369 kts 11°
2026-05-08 20:25 41.50097 -111.66390 23546 ft 371 kts 12°
2026-05-08 20:26 41.52605 -111.65406 23944 ft 374 kts 12°
2026-05-08 20:26 41.55106 -111.64424 24367 ft 377 kts 12°
2026-05-08 20:26 41.57626 -111.63434 24775 ft 379 kts 12°
2026-05-08 20:26 41.60153 -111.62440 25194 ft 380 kts 12°
2026-05-08 20:27 41.62688 -111.61443 25573 ft 382 kts 12°
2026-05-08 20:27 41.65235 -111.60439 25958 ft 384 kts 12°
2026-05-08 20:27 41.67802 -111.59427 26327 ft 387 kts 12°
2026-05-08 20:27 41.70367 -111.58415 26701 ft 388 kts 12°
2026-05-08 20:28 41.72985 -111.57381 27069 ft 390 kts 12°
2026-05-08 20:28 41.75576 -111.56358 27412 ft 392 kts 12°
2026-05-08 20:28 41.78194 -111.55321 27746 ft 395 kts 12°
2026-05-08 20:28 41.80844 -111.54469 28075 ft 393 kts
2026-05-08 20:29 41.83564 -111.53867 28401 ft 395 kts
2026-05-08 20:29 41.86288 -111.53256 28741 ft 397 kts
2026-05-08 20:29 41.89005 -111.52644 29045 ft 395 kts
2026-05-08 20:29 41.91710 -111.52035 29107 ft 397 kts
2026-05-08 20:30 41.97256 -111.50782 29123 ft 415 kts
2026-05-08 20:30 42.03088 -111.49461 29116 ft 430 kts
2026-05-08 20:31 42.08970 -111.48126 29198 ft 428 kts
2026-05-08 20:31 42.14865 -111.46786 29205 ft 428 kts
2026-05-08 20:32 42.20705 -111.45456 29200 ft 427 kts
2026-05-08 20:32 42.26566 -111.44119 29192 ft 427 kts
2026-05-08 20:33 42.32393 -111.42163 29202 ft 434 kts 15°
2026-05-08 20:33 42.38041 -111.39353 29194 ft 434 kts 15°
2026-05-08 20:34 42.43749 -111.36517 29197 ft 433 kts 15°
2026-05-08 20:35 42.52205 -111.32306 29192 ft 432 kts 15°
2026-05-08 20:35 42.57864 -111.29481 29193 ft 433 kts 15°
2026-05-08 20:36 42.63507 -111.26659 29193 ft 432 kts 15°
2026-05-08 20:36 42.69172 -111.23822 29183 ft 434 kts 15°
2026-05-08 20:37 42.74800 -111.20996 29172 ft 433 kts 15°
2026-05-08 20:37 42.80504 -111.18127 29174 ft 433 kts 15°
2026-05-08 20:37 42.83237 -111.16748 29157 ft 415 kts 15°
2026-05-08 20:38 42.85913 -111.15399 29165 ft 408 kts 15°
2026-05-08 20:38 42.91252 -111.12608 29162 ft 415 kts 21°
2026-05-08 20:39 42.96025 -111.08115 29169 ft 423 kts 33°
2026-05-08 20:39 43.00626 -111.03093 29159 ft 423 kts 33°
2026-05-08 20:40 43.05214 -110.98094 29166 ft 421 kts 33°
2026-05-08 20:40 43.09792 -110.93099 28892 ft 424 kts 33°
2026-05-08 20:40 43.12117 -110.90560 28448 ft 430 kts 33°
2026-05-08 20:41 43.14431 -110.88027 27969 ft 425 kts 33°
2026-05-08 20:41 43.16715 -110.85525 27508 ft 419 kts 33°
2026-05-08 20:41 43.18998 -110.83023 27049 ft 416 kts 33°
2026-05-08 20:41 43.21248 -110.80555 26598 ft 414 kts 33°
2026-05-08 20:42 43.23479 -110.78105 26147 ft 411 kts 33°
2026-05-08 20:42 43.25698 -110.75666 25692 ft 408 kts 33°
2026-05-08 20:42 43.27890 -110.73254 25249 ft 406 kts 33°
2026-05-08 20:42 43.30082 -110.70840 24796 ft 402 kts 33°
2026-05-08 20:43 43.32269 -110.68430 24351 ft 400 kts 33°
2026-05-08 20:43 43.34408 -110.66069 23911 ft 398 kts 33°
2026-05-08 20:43 43.36561 -110.63692 23471 ft 396 kts 33°
2026-05-08 20:43 43.38703 -110.61324 23036 ft 394 kts 33°
2026-05-08 20:44 43.40820 -110.58981 22606 ft 391 kts 33°
2026-05-08 20:44 43.42928 -110.56647 22177 ft 389 kts 33°
2026-05-08 20:44 43.45014 -110.54335 21761 ft 388 kts 33°
2026-05-08 20:44 43.47134 -110.51981 21331 ft 387 kts 33°
2026-05-08 20:45 43.49206 -110.49681 20911 ft 384 kts 33°
2026-05-08 20:45 43.50586 -110.48147 20630 ft 383 kts 34°
2026-05-08 20:45 43.53349 -110.45074 19957 ft 381 kts 34°
2026-05-08 20:45 43.55371 -110.42821 19546 ft 377 kts 34°
2026-05-08 20:46 43.57427 -110.40530 19136 ft 376 kts 34°
2026-05-08 20:46 43.59431 -110.38295 18721 ft 375 kts 34°
2026-05-08 20:46 43.61471 -110.36017 18300 ft 373 kts 34°
2026-05-08 20:46 43.63471 -110.33781 17892 ft 371 kts 35°
2026-05-08 20:47 43.65448 -110.31571 17498 ft 369 kts 35°
2026-05-08 20:47 43.67607 -110.29703 17081 ft 359 kts 15°
2026-05-08 20:47 43.70036 -110.29274 16734 ft 349 kts 351°
2026-05-08 20:47 43.72392 -110.29891 16342 ft 345 kts 344°
2026-05-08 20:48 43.74728 -110.30666 15952 ft 344 kts 343°
2026-05-08 20:48 43.77027 -110.31468 15558 ft 342 kts 343°
2026-05-08 20:48 43.79322 -110.32285 15177 ft 340 kts 343°
2026-05-08 20:48 43.81438 -110.33569 14823 ft 334 kts 320°
2026-05-08 20:49 43.82896 -110.35997 14434 ft 333 kts 295°
2026-05-08 20:49 43.83571 -110.39053 14008 ft 328 kts 283°
2026-05-08 20:49 43.84050 -110.42012 13561 ft 308 kts 282°
2026-05-08 20:49 43.84479 -110.44817 13329 ft 292 kts 282°
2026-05-08 20:50 43.84887 -110.47550 12976 ft 288 kts 281°
2026-05-08 20:50 43.85287 -110.50259 12661 ft 287 kts 281°
2026-05-08 20:50 43.85679 -110.52930 12342 ft 287 kts 281°
2026-05-08 20:50 43.86074 -110.55629 12025 ft 286 kts 281°
2026-05-08 20:51 43.86266 -110.58342 11691 ft 285 kts 261°
2026-05-08 20:51 43.85443 -110.60819 11431 ft 288 kts 231°
2026-05-08 20:51 43.83821 -110.62417 11022 ft 289 kts 206°
2026-05-08 20:51 43.81979 -110.63392 10645 ft 284 kts 203°
2026-05-08 20:52 43.80125 -110.64317 10258 ft 278 kts 202°
2026-05-08 20:52 43.78329 -110.65199 9884 ft 273 kts 202°
2026-05-08 20:52 43.76556 -110.66062 9520 ft 268 kts 202°
2026-05-08 20:52 43.74825 -110.66906 9118 ft 258 kts 202°
2026-05-08 20:53 43.73214 -110.67692 8826 ft 238 kts 201°
2026-05-08 20:53 43.71711 -110.68426 8582 ft 222 kts 202°
2026-05-08 20:53 43.70293 -110.69116 8347 ft 201 kts 202°
2026-05-08 20:53 43.69040 -110.69729 8006 ft 184 kts 202°
2026-05-08 20:54 43.67885 -110.70291 7738 ft 168 kts 203°
2026-05-08 20:54 43.66846 -110.70798 7521 ft 151 kts 203°
2026-05-08 20:54 43.65897 -110.71265 7316 ft 141 kts 204°
2026-05-08 20:54 43.64981 -110.71706 7168 ft 142 kts 202°
2026-05-08 20:55 43.64041 -110.72154 7019 ft 142 kts 204°
2026-05-08 20:55 43.63117 -110.72613 6822 ft 143 kts 204°
2026-05-08 20:55 43.62169 -110.73068 6657 ft 143 kts 205°
2026-05-08 20:55 43.61268 -110.73511 6460 ft 129 kts 201°
2026-05-08 20:56 43.60645 -110.73827 6445 ft 63 kts 199°
2026-05-08 20:56 43.60394 -110.73888 6441 ft 26 kts 127°
2026-05-08 20:56 43.60421 -110.73767 6442 ft 13 kts 22°